Wind_Speed
24 25 25 25 25 24 24 24 24 24 24 24 24 24 24 24 24 25 26 27 28 28 29 29 29 29 30 30 30 30 29 29 30 30 30 30 31 31 31 33 33 34 36 37 38 38 38 38 37 35 34 32
23 24 24 24 24 24 24 24 23 23 23 23 23 23 24 24 24 25 26 27 28 29 29 30 30 30 31 31 31 31 31 31 31 31 31 31 31 31 31 32 34 35 36 37 38 38 39 39 39 38 38 35
23 24 24 24 24 24 24 24 24 24 24 24 24 24 24 25 25 25 26 27 28 29 30 30 30 30 31 32 33 32 32 32 32 32 33 33 32 31 31 32 34 35 36 38 38 39 39 40 40 40 40 39
24 24 24 24 24 24 24 24 24 25 25 25 26 26 26 27 27 27 28 28 29 30 30 31 31 31 31 33 33 33 34 34 34 34 35 35 33 32 31 32 34 35 36 38 39 39 40 41 41 41 41 41
23 24 24 24 25 25 25 25 25 26 27 27 28 29 29 29 29 29 29 29 30 30 31 31 31 31 32 33 34 34 35 36 36 36 37 37 35 35 34 34 34 35 37 38 39 39 40 41 43 43 42 42
23 24 25 26 26 27 28 28 29 29 30 30 31 31 31 32 32 31 31 31 31 31 32 32 32 32 32 33 34 35 35 36 38 38 38 38 37 37 37 36 36 36 37 38 39 40 41 42 43 44 44 44
25 26 27 28 29 30 31 32 32 33 33 33 33 34 34 33 33 33 33 32 32 32 33 33 33 33 33 33 34 34 35 37 38 38 39 39 38 38 38 39 38 38 38 39 40 40 42 43 43 45 46 46
28 28 29 30 31 32 33 34 35 35 35 35 35 35 35 35 35 34 34 34 33 33 33 34 34 34 34 33 34 35 36 36 38 38 39 39 40 39 39 40 40 39 39 39 40 41 42 43 44 45 46 47
29 29 30 31 32 33 34 35 35 36 37 37 37 37 37 36 36 36 36 35 35 35 34 35 35 35 35 34 34 35 36 37 37 38 39 40 40 40 40 41 41 41 41 40 40 41 42 43 44 45 46 47
30 30 31 32 32 33 34 35 36 37 37 38 38 38 38 38 38 37 37 37 36 36 36 36 36 36 36 36 35 36 36 37 38 38 39 40 40 41 41 41 41 42 42 41 40 41 42 43 44 46 46 47
30 31 32 32 33 34 35 36 36 37 38 38 38 39 39 39 39 39 38 38 38 38 37 37 37 37 38 38 37 37 37 37 38 39 40 40 41 41 42 42 42 42 42 41 41 41 42 42 44 45 47 47
31 32 33 34 34 35 35 36 36 37 38 39 39 39 40 40 40 40 40 39 39 39 39 38 39 39 39 39 39 38 38 38 39 39 40 40 41 41 42 42 42 42 42 42 42 42 42 43 43 45 46 48
31 32 33 34 35 35 36 36 37 38 39 40 40 40 41 41 41 41 41 40 40 40 40 40 40 40 40 40 40 40 39 39 39 40 40 41 41 41 42 42 42 42 42 42 42 42 43 43 44 45 46 47
31 33 34 35 36 36 37 37 38 38 39 40 40 41 41 41 42 42 42 42 42 41 41 41 41 41 41 41 41 41 40 40 40 40 40 41 41 41 42 41 42 42 42 42 42 43 43 43 44 45 45 47
33 34 36 37 37 38 38 39 39 39 40 40 41 41 42 42 42 43 43 43 43 42 42 42 42 42 43 42 42 42 42 41 41 41 41 41 41 42 42 41 41 42 42 42 42 43 43 43 44 45 46 46
35 36 38 39 40 40 41 41 41 41 41 42 42 43 43 42 43 44 44 44 44 44 43 43 43 43 43 43 43 43 43 43 42 42 42 41 41 42 42 42 42 42 42 42 42 43 43 43 44 44 46 46
37 38 40 41 42 42 43 43 43 43 43 43 43 44 44 43 43 44 44 45 45 44 44 44 44 44 44 44 44 44 44 43 43 43 43 42 41 42 42 42 42 42 42 42 42 42 43 43 43 44 45 46
39 40 41 42 43 44 44 45 45 44 44 45 44 45 44 44 44 44 45 45 45 45 44 45 45 45 45 45 45 44 44 44 44 44 43 42 42 42 42 42 42 42 42 42 42 42 42 43 43 43 44 45
41 42 43 44 45 45 45 45 45 45 45 45 45 45 45 45 44 44 45 45 46 46 45 45 45 45 45 45 45 45 44 44 44 44 44 43 42 42 42 42 42 42 42 42 42 41 42 42 42 42 43 43
42 43 45 46 46 46 46 46 46 45 45 46 45 45 45 46 46 46 46 46 47 47 46 45 45 45 45 45 45 45 44 44 44 44 44 43 43 43 42 42 42 41 42 42 41 41 41 41 42 41 42 41
44 45 46 47 47 48 48 47 47 46 46 47 47 46 45 46 46 47 47 47 48 48 47 46 46 46 45 45 45 45 44 44 44 44 44 43 43 43 43 42 41 41 41 41 41 41 40 40 41 41 41 40
45 47 48 48 48 49 49 48 48 47 47 47 47 47 46 46 47 47 48 48 49 50 49 47 47 47 46 46 46 46 45 44 44 44 44 43 43 43 43 42 41 41 40 41 41 40 40 40 39 40 40 39
47 48 49 49 49 49 49 49 48 47 47 47 48 48 47 47 47 47 48 49 50 51 50 49 48 48 47 47 46 46 46 45 45 45 44 43 43 42 43 42 41 41 40 40 40 40 39 38 38 38 38 37
50 51 51 51 50 49 49 48 48 47 46 46 47 47 48 48 48 48 48 50 51 52 52 51 50 50 49 48 48 47 46 46 46 46 45 43 43 42 42 41 41 41 40 40 39 39 39 37 37 37 36 36
53 53 53 52 50 49 48 48 48 48 47 46 46 46 47 48 48 48 49 50 52 53 54 54 52 52 52 50 50 49 48 47 46 46 46 44 43 42 41 41 40 40 40 40 39 39 38 37 37 37 36 35
54 53 52 52 50 50 49 49 49 50 49 49 48 47 47 47 48 48 49 49 51 54 55 55 54 54 54 53 51 50 50 49 48 47 47 45 43 42 42 40 40 40 40 39 39 39 38 37 36 36 36 35
53 52 51 51 51 51 50 50 50 51 51 51 51 51 49 49 49 49 49 49 50 53 55 56 56 56 56 55 54 52 51 50 49 49 48 46 44 42 41 40 39 39 39 39 39 39 38 36 35 35 36 34
53 52 51 51 51 50 50 49 48 49 49 50 52 52 52 51 50 50 50 50 50 52 54 56 57 58 58 58 56 55 53 51 50 50 49 46 44 43 41 40 40 39 39 38 38 39 38 37 36 35 34 32
52 52 52 51 50 49 48 47 47 47 48 48 50 52 53 53 52 51 50 50 50 51 52 54 56 58 59 59 59 57 55 52 50 49 50 48 44 43 42 40 40 40 39 38 37 38 37 37 37 36 34 32
51 50 49 48 47 47 47 47 46 47 48 49 50 52 54 55 54 53 52 51 50 50 52 53 54 56 58 60 59 59 57 54 51 49 49 49 46 44 42 41 40 39 39 39 38 37 37 37 37 36 34 33
46 44 43 43 43 43 44 46 46 47 48 49 51 53 55 56 57 56 54 53 52 51 51 52 53 54 56 58 59 60 59 57 53 50 49 48 47 45 42 42 41 38 38 40 39 38 37 36 36 36 35 33
Wind_Direction
305 304 303 302 301 301 300 298 297 296 296 296 296 296 295 296 297 297 297 296 295 294 294 293 293 292 291 290 289 288 287 286 284 283 282 281 281 281 282 282 282 282 282 283 284 284 283 283 282 279 276 271
303 303 304 306 306 305 305 303 303 303 303 302 302 301 301 302 302 302 300 299 298 298 297 296 296 295 294 293 292 291 290 289 287 286 284 282 282 283 283 283 283 282 281 282 282 283 283 282 281 280 278 274
307 308 309 311 312 312 312 311 311 310 310 309 309 308 308 308 307 306 305 303 302 301 300 299 298 297 296 295 294 293 292 291 290 288 286 284 284 284 285 284 284 283 282 282 282 282 282 282 281 280 279 277
313 314 314 314 315 315 315 314 314 313 314 314 314 313 312 312 311 310 308 307 306 304 303 301 301 300 298 297 297 296 296 295 293 292 290 288 288 288 286 285 284 284 283 283 282 282 282 282 281 280 279 277
316 317 317 317 316 315 314 314 314 314 314 315 315 314 314 313 312 310 309 309 308 307 305 305 304 303 302 301 300 300 299 299 297 295 293 293 293 293 291 288 287 286 285 284 284 283 283 282 282 281 280 278
317 317 316 316 315 314 314 314 314 314 314 314 314 313 312 312 311 310 309 309 309 308 308 307 307 306 305 304 302 302 301 299 297 296 295 295 295 295 293 291 290 288 287 287 286 286 285 284 283 282 281 279
316 316 315 315 315 315 315 314 314 314 314 313 313 312 312 311 310 309 308 308 308 308 308 308 308 307 306 305 303 302 300 298 296 295 295 295 295 294 293 292 291 289 288 288 287 287 287 286 284 283 282 280
316 316 315 315 315 315 315 315 314 314 313 313 312 312 311 311 309 309 308 308 308 308 308 308 307 307 306 305 304 302 299 297 295 295 295 295 294 294 292 291 291 289 288 288 288 287 287 286 285 284 282 281
316 317 316 316 316 316 315 315 314 313 313 312 312 312 311 310 309 309 308 308 308 308 308 307 306 305 305 305 303 301 298 297 296 295 295 294 293 293 292 290 290 290 289 288 288 288 288 288 286 285 283 281
317 317 316 317 317 316 315 315 314 313 313 312 312 311 311 310 309 308 308 308 308 307 307 306 305 305 305 303 302 300 298 298 297 296 295 294 293 292 291 290 289 289 289 289 289 289 288 288 287 286 284 282
319 318 318 318 317 317 315 315 314 313 312 312 311 311 310 309 308 307 307 307 307 306 305 305 304 304 303 302 301 300 299 299 298 297 295 294 293 292 291 290 290 289 289 289 289 289 288 288 287 287 285 283
320 319 319 319 318 317 315 314 313 312 311 310 310 310 309 308 307 307 306 306 305 305 305 305 304 303 302 301 301 301 300 300 298 297 295 294 293 292 291 290 290 290 289 290 289 289 289 288 287 286 286 284
323 322 322 321 321 319 316 314 312 311 310 309 309 308 308 307 306 305 305 304 304 305 304 304 302 302 301 301 301 300 300 299 298 297 295 294 294 292 291 291 290 290 290 290 289 289 289 289 288 286 285 285
327 326 325 324 323 322 319 316 314 312 310 309 308 307 306 305 305 304 304 304 303 303 303 302 301 301 301 301 301 300 299 299 297 296 295 294 294 292 291 291 290 290 289 289 289 289 289 289 288 287 285 284
328 327 326 325 324 322 320 318 315 313 310 308 307 306 305 305 304 304 303 302 302 302 301 301 301 301 301 301 301 300 299 299 297 296 295 295 294 293 292 291 290 289 289 289 289 289 289 289 288 287 286 284
328 327 326 325 324 323 320 319 316 314 311 309 308 306 305 305 304 303 302 301 301 301 301 300 300 301 301 301 300 299 299 298 297 296 295 295 294 293 292 291 291 289 289 289 288 288 288 289 288 287 286 284
327 326 325 325 324 322 321 319 317 314 312 310 308 306 305 305 303 302 301 301 300 300 300 300 299 300 300 299 299 298 297 297 296 295 294 294 293 292 292 291 290 289 289 289 288 288 288 288 288 286 285 284
326 325 325 324 323 322 320 318 316 313 311 309 308 306 305 304 303 302 301 301 300 300 300 299 299 299 299 298 297 297 296 295 295 294 293 293 292 291 291 290 290 289 289 288 287 287 288 288 287 286 285 284
325 324 324 323 322 321 318 316 314 312 310 308 307 306 306 305 304 303 302 302 301 300 300 299 299 298 298 297 296 296 295 294 293 293 292 292 291 291 290 289 289 289 288 288 287 287 287 287 287 286 285 285
324 323 322 321 320 319 317 315 313 311 308 306 306 305 305 305 305 304 303 302 301 300 299 299 298 298 297 296 295 295 294 293 292 292 292 291 291 290 289 288 288 288 287 287 287 286 286 286 286 286 285 285
322 322 321 320 319 317 316 315 313 310 308 306 305 304 303 303 303 303 303 302 300 299 299 298 298 297 297 296 296 295 294 293 292 292 291 291 290 289 288 288 287 287 287 287 286 286 286 286 286 286 285 285
321 320 320 319 318 317 316 314 312 310 308 306 304 303 302 300 300 301 300 300 299 298 298 297 297 297 297 296 296 295 294 293 292 291 291 291 290 289 288 288 287 287 286 286 286 285 285 285 285 285 285 286
319 319 319 318 317 316 315 313 311 309 308 306 304 302 300 299 298 298 298 297 296 295 296 296 296 296 296 295 295 295 294 293 292 292 291 291 290 289 289 288 287 287 286 285 285 285 284 284 284 285 286 286
319 319 318 317 316 315 314 312 310 309 307 305 303 302 300 298 297 296 295 295 294 293 293 294 295 295 295 295 295 295 294 293 292 292 291 291 290 289 288 288 287 286 285 285 284 284 284 283 283 284 284 285
319 318 317 316 315 314 313 312 310 309 307 305 303 301 299 298 296 295 293 292 291 291 292 292 293 293 294 294 294 294 293 293 292 292 291 290 290 289 288 287 286 285 284 284 283 283 283 283 282 283 282 282
318 317 316 316 315 314 313 312 310 308 307 305 302 300 299 298 296 295 293 291 289 289 290 291 291 291 291 291 291 292 291 291 291 291 291 290 289 289 288 287 285 284 283 283 283 282 282 282 282 282 281 281
318 317 316 315 315 314 313 311 309 307 306 304 303 301 300 298 297 296 294 291 289 288 289 289 289 289 288 288 288 288 288 288 288 289 289 289 288 288 288 287 285 283 282 282 282 281 281 281 280 280 280 282
317 316 315 314 313 311 309 307 305 303 302 301 300 300 299 298 296 296 295 293 291 288 288 287 287 287 286 287 286 286 285 285 285 286 287 287 287 286 286 286 284 281 280 279 279 280 281 281 280 279 279 281
316 315 314 312 310 307 305 303 302 300 299 298 297 297 296 295 294 294 293 293 291 289 287 286 285 285 284 285 285 284 283 282 282 284 285 285 285 285 285 284 282 280 279 277 276 277 278 279 279 279 279 279
315 313 311 309 307 306 305 305 304 303 302 301 300 298 297 296 294 293 292 291 291 290 288 286 285 283 282 282 282 283 282 280 280 281 282 282 283 284 283 282 280 279 277 275 274 273 274 275 276 277 277 277
314 312 310 310 309 309 308 308 308 307 305 304 302 301 299 298 297 295 293 291 290 289 289 288 286 284 282 280 279 280 280 278 278 279 280 280 281 282 281 280 279 277 274 273 273 271 270 271 273 275 275 275
Height
3116 3115 3114 3114 3113 3112 3111 3110 3110 3109 3107 3106 3105 3104 3103 3102 3101 3100 3099 3097 3096 3095 3094 3093 3092 3091 3090 3089 3088 3088 3087 3087 3086 3086 3086 3085 3084 3083 3082 3082 3081 3081 3081 3081 3081 3082 3083 3084 3085 3086 3088 3089
3115 3114 3112 3112 3110 3110 3109 3108 3107 3106 3105 3104 3103 3102 3101 3100 3099 3097 3096 3095 3094 3093 3091 3090 3089 3088 3086 3085 3085 3084 3083 3083 3083 3082 3082 3082 3081 3080 3079 3078 3078 3077 3077 3077 3077 3077 3078 3079 3080 3081 3082 3084
3113 3111 3110 3109 3108 3107 3106 3105 3104 3103 3103 3102 3101 3099 3098 3097 3096 3095 3094 3092 3091 3090 3088 3087 3086 3085 3083 3081 3081 3080 3079 3078 3078 3078 3078 3078 3077 3076 3075 3075 3074 3074 3073 3073 3073 3073 3073 3074 3075 3076 3077 3079
3109 3108 3107 3107 3106 3104 3104 3103 3102 3101 3100 3099 3098 3097 3095 3094 3093 3092 3091 3089 3088 3087 3085 3084 3083 3081 3080 3078 3076 3075 3074 3073 3073 3073 3073 3072 3072 3071 3071 3071 3070 3070 3069 3069 3069 3069 3069 3069 3070 3071 3072 3073
3107 3106 3105 3104 3103 3102 3101 3100 3099 3098 3097 3096 3095 3094 3092 3091 3090 3089 3088 3086 3085 3084 3082 3080 3079 3078 3076 3074 3072 3071 3069 3068 3068 3068 3067 3066 3065 3065 3065 3066 3066 3065 3065 3064 3064 3064 3065 3064 3065 3065 3067 3068
3105 3104 3103 3102 3100 3099 3098 3097 3096 3095 3094 3093 3091 3090 3089 3088 3086 3085 3084 3083 3082 3080 3078 3077 3075 3074 3072 3070 3069 3067 3065 3064 3064 3064 3062 3061 3060 3059 3059 3060 3060 3060 3060 3060 3059 3059 3059 3060 3060 3060 3061 3062
3103 3101 3100 3099 3097 3096 3094 3093 3092 3091 3090 3088 3087 3086 3085 3084 3082 3081 3080 3079 3078 3077 3075 3073 3071 3070 3069 3067 3065 3063 3062 3061 3060 3059 3058 3056 3055 3054 3054 3054 3054 3055 3055 3055 3055 3054 3054 3055 3055 3055 3055 3056
3100 3099 3097 3096 3094 3093 3091 3090 3088 3087 3086 3084 3083 3082 3081 3080 3078 3077 3076 3075 3074 3073 3071 3069 3067 3066 3065 3064 3062 3060 3059 3058 3057 3055 3053 3052 3050 3050 3050 3049 3048 3049 3050 3050 3050 3050 3049 3050 3050 3050 3050 3051
3097 3096 3095 3093 3092 3090 3088 3087 3085 3083 3082 3081 3079 3078 3077 3076 3074 3073 3072 3070 3069 3068 3067 3065 3064 3062 3061 3060 3059 3057 3056 3055 3053 3051 3049 3048 3046 3046 3045 3045 3044 3044 3044 3045 3045 3044 3044 3045 3044 3045 3045 3045
3095 3093 3092 3091 3089 3088 3086 3084 3082 3080 3079 3077 3076 3074 3073 3072 3070 3069 3068 3066 3065 3064 3063 3061 3060 3058 3057 3056 3056 3055 3053 3051 3049 3047 3045 3044 3043 3042 3041 3040 3040 3039 3038 3039 3039 3039 3039 3039 3039 3039 3039 3039
3092 3091 3090 3088 3087 3085 3083 3081 3079 3077 3076 3074 3072 3071 3070 3068 3066 3065 3064 3062 3061 3060 3059 3057 3055 3054 3052 3052 3051 3050 3048 3047 3045 3043 3042 3040 3039 3038 3037 3036 3035 3034 3034 3033 3033 3034 3034 3034 3034 3033 3033 3033
3090 3088 3087 3085 3084 3082 3080 3079 3077 3075 3073 3071 3069 3068 3066 3065 3063 3061 3060 3058 3057 3055 3054 3052 3050 3049 3048 3047 3045 3044 3043 3042 3040 3039 3037 3036 3035 3034 3032 3031 3030 3029 3029 3028 3028 3028 3028 3029 3029 3028 3027 3027
3088 3086 3084 3083 3081 3079 3078 3076 3074 3072 3070 3068 3066 3064 3063 3061 3059 3058 3056 3054 3053 3051 3050 3048 3047 3045 3044 3042 3040 3039 3038 3037 3036 3034 3033 3032 3030 3029 3028 3027 3026 3024 3023 3023 3023 3022 3023 3022 3023 3023 3022 3021
3085 3083 3081 3080 3078 3076 3074 3072 3071 3069 3067 3065 3063 3061 3059 3058 3056 3054 3052 3050 3049 3048 3046 3044 3043 3041 3039 3038 3036 3034 3033 3032 3031 3030 3028 3027 3026 3024 3023 3022 3021 3020 3019 3018 3018 3017 3017 3017 3016 3016 3016 3016
3082 3080 3078 3077 3075 3073 3071 3069 3067 3065 3063 3061 3059 3057 3055 3054 3052 3050 3048 3046 3045 3043 3042 3040 3038 3036 3034 3033 3031 3029 3028 3027 3026 3025 3023 3022 3021 3019 3018 3017 3016 3015 3014 3013 3013 3012 3011 3011 3011 3010 3010 3010
3079 3077 3075 3073 3071 3069 3067 3065 3063 3061 3059 3057 3055 3053 3051 3049 3047 3045 3044 3042 3040 3039 3037 3035 3033 3032 3030 3028 3026 3025 3023 3022 3021 3019 3018 3017 3016 3014 3013 3012 3011 3010 3009 3008 3007 3006 3006 3006 3005 3005 3004 3003
3076 3074 3072 3070 3068 3065 3063 3061 3059 3057 3055 3053 3051 3049 3047 3046 3043 3041 3039 3037 3036 3034 3033 3031 3029 3027 3026 3024 3022 3021 3019 3018 3016 3015 3013 3012 3011 3009 3008 3007 3006 3005 3004 3003 3002 3001 3000 3000 3000 2999 2998 2997
3072 3071 3069 3066 3064 3062 3059 3057 3055 3053 3051 3049 3047 3045 3043 3042 3040 3038 3036 3033 3031 3030 3028 3026 3024 3023 3021 3019 3018 3017 3015 3013 3012 3010 3009 3008 3006 3004 3003 3001 3000 2999 2998 2998 2997 2996 2995 2994 2994 2994 2993 2992
3068 3066 3064 3062 3060 3058 3056 3053 3051 3049 3047 3045 3043 3041 3040 3038 3036 3034 3032 3029 3027 3025 3023 3021 3020 3018 3017 3015 3013 3012 3011 3009 3007 3005 3004 3002 3001 2999 2998 2997 2996 2994 2993 2993 2992 2991 2990 2989 2989 2988 2987 2987
3065 3063 3060 3058 3056 3054 3051 3049 3047 3045 3042 3040 3038 3037 3035 3033 3031 3029 3027 3025 3022 3020 3019 3017 3015 3014 3012 3010 3009 3007 3006 3004 3002 3001 2999 2998 2996 2994 2993 2992 2991 2990 2988 2987 2987 2986 2985 2984 2984 2983 2982 2981
3061 3059 3056 3053 3050 3048 3046 3043 3041 3039 3037 3035 3033 3031 3030 3028 3026 3025 3023 3020 3018 3015 3014 3012 3010 3009 3007 3006 3004 3002 3001 3000 2998 2996 2994 2993 2991 2989 2988 2987 2986 2985 2983 2982 2982 2981 2980 2979 2979 2977 2977 2976
3058 3055 3052 3049 3046 3043 3040 3038 3036 3034 3032 3030 3028 3026 3025 3023 3022 3020 3018 3016 3013 3011 3009 3008 3006 3004 3002 3001 2999 2997 2996 2995 2993 2991 2989 2988 2986 2984 2982 2981 2980 2979 2978 2977 2977 2976 2975 2975 2974 2973 2972 2971
3054 3051 3048 3045 3042 3038 3035 3032 3031 3029 3027 3025 3023 3021 3020 3018 3017 3016 3014 3011 3009 3006 3004 3002 3001 2999 2997 2996 2994 2992 2991 2990 2988 2986 2984 2983 2981 2979 2977 2976 2975 2974 2973 2972 2972 2971 2970 2970 2969 2968 2967 2966
3049 3046 3043 3040 3037 3034 3030 3027 3025 3023 3022 3020 3018 3016 3014 3013 3012 3011 3009 3007 3004 3001 2999 2997 2995 2994 2992 2990 2989 2987 2986 2984 2983 2981 2979 2978 2976 2974 2972 2971 2970 2968 2968 2967 2967 2966 2966 2965 2965 2964 2963 2962
3043 3040 3037 3034 3031 3028 3025 3022 3019 3017 3016 3014 3013 3011 3009 3007 3006 3005 3003 3002 2999 2996 2994 2992 2990 2988 2986 2984 2983 2982 2980 2979 2977 2975 2974 2972 2971 2969 2967 2966 2965 2963 2962 2962 2962 2961 2961 2960 2960 2959 2958 2957
3038 3034 3031 3027 3025 3022 3020 3017 3013 3011 3009 3007 3006 3005 3003 3002 3000 2998 2997 2996 2994 2991 2989 2987 2985 2982 2980 2979 2977 2976 2975 2973 2972 2970 2969 2967 2965 2964 2962 2961 2960 2958 2957 2957 2957 2956 2955 2956 2955 2954 2953 2953
3033 3029 3026 3022 3019 3016 3014 3011 3008 3005 3002 3000 2998 2997 2996 2995 2993 2992 2990 2989 2988 2986 2983 2981 2979 2977 2975 2973 2972 2970 2969 2968 2967 2965 2964 2962 2960 2959 2957 2956 2955 2953 2952 2952 2951 2950 2950 2950 2951 2950 2948 2948
3027 3024 3021 3018 3015 3012 3009 3007 3004 3001 2998 2994 2991 2989 2988 2986 2986 2984 2983 2982 2981 2979 2978 2976 2974 2971 2968 2967 2965 2964 2963 2962 2961 2960 2958 2957 2955 2953 2952 2951 2949 2948 2947 2947 2947 2945 2945 2945 2945 2945 2944 2945
3022 3019 3016 3013 3010 3007 3005 3003 3000 2997 2995 2991 2987 2984 2981 2979 2978 2977 2976 2975 2974 2972 2971 2969 2968 2965 2963 2961 2959 2958 2957 2956 2955 2954 2953 2951 2950 2948 2946 2945 2944 2943 2942 2942 2942 2941 2940 2940 2940 2940 2940 2940
3017 3014 3010 3008 3005 3001 2998 2996 2993 2990 2987 2985 2982 2979 2976 2973 2972 2971 2969 2968 2966 2965 2964 2962 2961 2959 2957 2955 2953 2951 2950 2949 2949 2947 2946 2945 2944 2942 2941 2939 2938 2938 2937 2936 2936 2937 2936 2936 2935 2935 2935 2935
3012 3009 3006 3002 2999 2996 2992 2989 2986 2983 2980 2978 2975 2972 2969 2966 2965 2964 2963 2961 2959 2958 2957 2955 2954 2952 2950 2948 2946 2944 2943 2943 2942 2941 2940 2938 2937 2936 2935 2934 2933 2933 2932 2930 2930 2931 2932 2932 2931 2930 2930 2930